Weather reports worldwide

Advertisment
Linton-On-Ouse, United Kingdom (3266): temperature & dewpoint: 25.03.2020 02:00:00 - 31.03.2020 02:00:00 (BST)Linton-On-Ouse, United Kingdom (3266): wind speed & gusts: 25.03.2020 02:00:00 - 31.03.2020 02:00:00 (BST)Linton-On-Ouse, United Kingdom (3266): wind direction: 25.03.2020 02:00:00 - 31.03.2020 02:00:00 (BST)Linton-On-Ouse, United Kingdom (3266): reduced air pressure: 25.03.2020 02:00:00 - 31.03.2020 02:00:00 (BST)Linton-On-Ouse, United Kingdom (3266): visibility: 25.03.2020 02:00:00 - 31.03.2020 02:00:00 (BST)
Date & Time tt [°C] td [°C] ff [km/h] ff [kn] fx [km/h] fx [kn] dd ppp [hPa] vv [km]
31.03.2020 02:00:00 5,5 3,9 15 8 - - NNE 1035,4 30
31.03.2020 01:00:00 5,3 3,6 13 7 - - NNE 1035,4 10
31.03.2020 00:00:00 5,5 4,3 13 7 - - N 1035,4 28
30.03.2020 23:00:00 6,0 3,9 18 10 - - N 1035,5 29
30.03.2020 22:00:00 6,6 4,3 18 10 - - N 1035,5 24
30.03.2020 21:00:00 7,2 2,9 15 8 - - N 1035,6 22
30.03.2020 20:00:00 7,3 2,6 22 12 - - N 1035,5 22
30.03.2020 19:00:00 8,3 2,1 26 14 - - N 1035,2 25
30.03.2020 18:00:00 8,9 1,9 28 15 - - N 1035,2 27
30.03.2020 17:00:00 9,7 1,5 31 17 46 25 N 1035,0 30
30.03.2020 16:00:00 9,5 1,8 28 15 - - N 1035,4 29
30.03.2020 15:00:00 10,3 2,0 31 17 - - N 1035,8 29
30.03.2020 14:00:00 9,7 1,6 28 15 - - NNE 1036,1 26
30.03.2020 13:00:00 9,4 1,6 28 15 - - NNE 1036,3 26
30.03.2020 12:00:00 8,1 2,3 28 15 - - N 1036,8 26
30.03.2020 11:00:00 7,6 4,1 18 10 - - N 1037,1 25
30.03.2020 10:00:00 6,3 2,5 24 13 - - NNW 1037,6 27
30.03.2020 09:00:00 6,1 2,2 22 12 - - NNW 1037,4 30
30.03.2020 08:00:00 5,4 1,8 21 11 - - NNW 1037,5 30
30.03.2020 07:00:00 5,0 1,4 18 10 - - NW 1037,3 30
30.03.2020 06:00:00 4,7 0,4 13 7 - - NW 1038,0 30
30.03.2020 05:00:00 4,7 0,2 13 7 - - NW 1038,3 30
30.03.2020 04:00:00 4,1 0,0 11 6 - - WNW 1038,8 29
30.03.2020 03:00:00 4,1 -0,7 9 5 - - WNW 1039,7 30
30.03.2020 02:00:00 3,8 -1,2 11 6 - - NW 1040,4 30
30.03.2020 01:00:00 3,0 -1,4 13 7 - - NNW 1041,2 30
30.03.2020 00:00:00 2,8 -1,6 5 3 - - W 1041,7 26
29.03.2020 23:00:00 2,8 -1,6 5 3 - - NW 1042,3 22
29.03.2020 22:00:00 2,9 -1,8 13 7 - - NNW 1043,0 24
29.03.2020 21:00:00 2,7 -1,9 15 8 - - NNW 1043,7 26
29.03.2020 20:00:00 2,7 -2,5 13 7 - - NNW 1043,8 26
29.03.2020 19:00:00 5,1 -2,0 22 12 - - N 1043,9 28
29.03.2020 18:00:00 5,1 -1,9 22 12 - - N 1044,2 28
29.03.2020 17:00:00 6,0 -2,4 24 13 - - NNE 1044,3 30
29.03.2020 16:00:00 4,8 0,7 22 12 48 26 N 1044,4 27
29.03.2020 15:00:00 5,4 -0,6 16 9 - - NE 1044,5 27
29.03.2020 14:00:00 6,1 -1,4 29 16 46 25 N 1044,4 27
29.03.2020 13:00:00 6,4 -3,5 28 15 46 25 NNE 1044,4 30
29.03.2020 12:00:00 6,4 -0,9 31 17 55 30 NNE 1044,3 24
29.03.2020 11:00:00 5,5 -1,5 31 17 46 25 NE 1044,2 27
29.03.2020 10:00:00 5,0 -2,3 34 18 52 28 NNE 1044,2 26
29.03.2020 09:00:00 4,5 -2,1 31 17 46 25 NNE 1043,5 23
29.03.2020 08:00:00 3,8 -2,2 28 15 50 27 NNE 1042,7 25
29.03.2020 07:00:00 3,8 -5,5 28 15 61 33 NNE 1042,1 30
29.03.2020 06:00:00 3,5 -2,1 29 16 46 25 N 1041,9 18
29.03.2020 05:00:00 3,7 -4,2 24 13 - - NNE 1041,6 28
29.03.2020 04:00:00 3,3 -0,8 22 12 61 33 N 1041,7 23
29.03.2020 03:00:00 3,2 -1,9 22 12 50 27 N 1041,3 25
29.03.2020 02:00:00 3,1 -1,6 16 9 - - N 1041,1 22
29.03.2020 01:00:00 3,7 -2,3 26 14 - - N 1040,9 10
29.03.2020 00:00:00 4,0 -0,5 26 14 50 27 NNE 1040,5 20
28.03.2020 23:00:00 3,2 0,1 21 11 - - N 1040,1 20
28.03.2020 22:00:00 3,6 1,0 22 12 - - NNE 1039,7 4,4
28.03.2020 21:00:00 4,1 0,8 26 14 - - NNE 1039,0 4,4
28.03.2020 20:00:00 4,8 -0,3 28 15 - - N 1038,1 24
28.03.2020 19:00:00 5,6 1,5 29 16 - - N 1037,5 21
28.03.2020 18:00:00 4,8 1,5 29 16 54 29 NNE 1037,2 30
28.03.2020 17:00:00 7,0 1,8 34 18 48 26 NNE 1036,5 27
28.03.2020 16:00:00 8,1 -0,1 34 18 46 25 N 1036,0 27
28.03.2020 15:00:00 8,7 4,3 22 12 - - NNE 1035,9 22
28.03.2020 14:00:00 9,1 0,3 31 17 - - NNE 1035,7 27
28.03.2020 13:00:00 9,6 2,6 31 17 - - NNE 1035,3 30
28.03.2020 12:00:00 8,7 2,3 28 15 - - NNE 1034,9 24
28.03.2020 11:00:00 8,4 2,5 26 14 - - NNE 1034,7 27
28.03.2020 10:00:00 9,0 2,9 26 14 - - NNE 1034,1 28
28.03.2020 09:00:00 7,7 3,3 18 10 - - NNE 1033,8 26
28.03.2020 08:00:00 6,7 2,9 21 11 - - N 1033,2 27
28.03.2020 07:00:00 5,7 2,8 16 9 - - N 1032,7 26
28.03.2020 06:00:00 6,5 2,9 15 8 - - N 1032,2 26
28.03.2020 05:00:00 6,8 2,5 18 10 - - NNE 1031,9 27
28.03.2020 04:00:00 6,8 2,9 24 13 - - NE 1031,8 25
28.03.2020 03:00:00 6,6 5,4 18 10 - - NNE 1031,7 19
28.03.2020 02:00:00 4,7 3,6 9 5 - - NNW 1031,7 5
28.03.2020 01:00:00 2,0 0,5 9 5 - - NNW 1031,6 5
28.03.2020 00:00:00 3,1 0,9 5 3 - - N 1031,4 7
27.03.2020 23:00:00 3,8 1,6 15 8 - - N 1031,0 6
27.03.2020 22:00:00 3,5 1,0 11 6 - - N 1030,6 8
27.03.2020 21:00:00 4,1 0,7 15 8 - - N 1030,2 10
27.03.2020 20:00:00 5,6 -1,8 8 4 - - NNE 1030,0 15
27.03.2020 19:00:00 8,0 -4,9 24 13 - - NE 1029,2 19
27.03.2020 18:00:00 10,1 -4,9 24 13 - - NNE 1028,3 21
27.03.2020 17:00:00 11,6 -2,8 21 11 - - NE 1027,9 21
27.03.2020 16:00:00 12,0 -0,8 18 10 - - NE 1027,9 19
27.03.2020 15:00:00 11,4 -2,7 21 11 - - ENE 1028,2 21
27.03.2020 14:00:00 11,0 1,4 16 9 - - NE 1028,6 17
27.03.2020 13:00:00 9,5 2,5 15 8 - - NNE 1029,1 12
27.03.2020 12:00:00 7,9 3,8 5 3 - - ENE 1029,4 9
27.03.2020 11:00:00 4,8 3,9 5 3 - - NNW 1029,2 6
27.03.2020 10:00:00 2,4 2,4 9 5 - - N 1029,0 2,3
27.03.2020 09:00:00 1,0 1,0 11 6 - - NW 1028,6 0,2
27.03.2020 08:00:00 0,9 0,9 15 8 - - NW 1028,2 0,1
27.03.2020 07:00:00 0,3 0,3 11 6 - - NW 1028,0 0,1
27.03.2020 06:00:00 0,9 0,9 13 7 - - NW 1027,8 0,1
27.03.2020 05:00:00 1,0 0,9 9 5 - - NNW 1027,8 -
27.03.2020 04:00:00 -1,0 -1,8 5 3 - - NNW 1027,8 2,5
27.03.2020 03:00:00 1,0 0,8 5 3 - - ENE 1027,9 3,4
27.03.2020 02:00:00 -0,3 -1,1 4 2 - - NNW 1027,8 2,3
27.03.2020 01:00:00 1,2 0,1 4 2 - - NNW 1027,9 3,9
27.03.2020 00:00:00 2,1 0,2 5 3 - - NNE 1027,8 4,7
26.03.2020 23:00:00 3,8 1,6 8 4 - - ENE 1027,6 6
26.03.2020 22:00:00 4,6 1,9 8 4 - - ENE 1027,2 6
26.03.2020 21:00:00 5,9 2,6 13 7 - - E 1026,9 7
26.03.2020 20:00:00 7,9 1,2 13 7 - - ENE 1026,4 10
26.03.2020 19:00:00 10,9 -3,2 11 6 - - E 1025,6 17
26.03.2020 18:00:00 12,6 -1,2 15 8 - - E 1025,4 15
26.03.2020 17:00:00 13,9 -3,0 13 7 - - E 1025,4 17
26.03.2020 16:00:00 13,8 -2,0 11 6 - - E 1025,6 16
26.03.2020 15:00:00 14,2 -2,5 8 4 - - E 1025,7 17
26.03.2020 14:00:00 13,5 0,1 8 4 - - NE 1026,0 14
26.03.2020 13:00:00 12,0 0,1 9 5 - - E 1026,3 12
26.03.2020 12:00:00 10,1 2,0 4 2 - - ESE 1026,3 10
26.03.2020 11:00:00 8,5 1,7 4 2 - - ESE 1026,5 8
26.03.2020 10:00:00 5,5 1,4 2 1 - - ESE 1026,5 7
26.03.2020 09:00:00 2,3 1,4 2 1 - - WNW 1026,3 6
26.03.2020 08:00:00 -0,5 -1,9 2 1 - - N 1026,2 5
26.03.2020 07:00:00 0,2 -1,1 0 0 - - N 1025,7 6
26.03.2020 06:00:00 -0,2 -1,7 2 1 - - WNW 1025,5 6
26.03.2020 05:00:00 0,9 -1,4 2 1 - - ENE 1025,4 8
26.03.2020 04:00:00 2,9 -0,6 4 2 - - ESE 1025,4 9
26.03.2020 03:00:00 3,5 0,1 8 4 - - E 1025,5 8
26.03.2020 02:00:00 4,5 0,5 8 4 - - E 1025,4 8
26.03.2020 01:00:00 1,2 0,1 8 4 - - ESE 1027,9 9
26.03.2020 00:00:00 6,2 0,8 8 4 - - E 1025,2 10
25.03.2020 23:00:00 6,5 1,2 5 3 - - E 1025,0 9
25.03.2020 22:00:00 7,9 1,6 11 6 - - ESE 1024,7 11
25.03.2020 21:00:00 9,9 0,8 11 6 - - ESE 1024,3 12
25.03.2020 20:00:00 12,3 -1,5 11 6 - - SE 1023,6 14
25.03.2020 19:00:00 14,6 -1,4 11 6 - - SE 1023,4 10
25.03.2020 18:00:00 15,9 -1,4 11 6 - - SE 1023,2 10
25.03.2020 17:00:00 16,5 -0,7 15 8 - - SE 1023,2 17
25.03.2020 16:00:00 16,5 1,9 15 8 - - SE 1023,4 16
25.03.2020 15:00:00 15,7 3,0 11 6 - - SE 1023,8 17
25.03.2020 14:00:00 15,6 4,5 13 7 - - SE 1024,0 16
25.03.2020 13:00:00 14,3 4,6 11 6 - - SE 1024,1 14
25.03.2020 12:00:00 12,2 3,8 11 6 - - SE 1024,3 14
25.03.2020 11:00:00 10,1 2,6 11 6 - - SSE 1024,3 14
25.03.2020 10:00:00 7,7 2,2 5 3 - - SSE 1024,2 13
25.03.2020 09:00:00 5,4 1,3 9 5 - - SE 1024,2 13
25.03.2020 08:00:00 3,8 0,9 8 4 - - ESE 1024,0 12
25.03.2020 07:00:00 4,3 1,1 8 4 - - ESE 1023,4 12
25.03.2020 06:00:00 5,0 1,5 9 5 - - SE 1023,1 11
25.03.2020 05:00:00 5,9 2,4 21 11 - - SSE 1022,8 12
25.03.2020 04:00:00 6,4 3,0 9 5 - - SSE 1022,9 10
25.03.2020 03:00:00 7,5 3,9 9 5 - - SSE 1022,6 11
25.03.2020 02:00:00 - - - - - - - - -

tt = temperature
td = dewpoint
ff = wind speed
fx = gusts
dd = wind direction
ppp = reduced air pressure
vv = visibility

Next stations